AAL1435 KJAC-KSEA

Flight info

Callsign AAL1435
Flight time 1h 39m
Altitude 38000
Route ALPIN5 IDA DNJ J20 PDT CHINS5
Aircraft B738/M-SDE2E3FGHIRWXY/LB1

Departure

Time 2026-05-06 23:54
Airport Jackson Hole Airport (KJAC)

Arrival

Time 2026-05-07 01:33
Airport Seattle–Tacoma International Airport (KSEA)
Time Latitude Longitude Altitude Speed Heading
2026-05-06 23:40 43.60298 -110.73739 6422 ft 0 kts 109°
2026-05-06 23:44 43.60302 -110.73757 6419 ft 4 kts 104°
2026-05-06 23:44 43.60306 -110.73793 6419 ft 4 kts 83°
2026-05-06 23:44 43.60298 -110.73824 6416 ft 4 kts 36°
2026-05-06 23:45 43.60290 -110.73831 6415 ft 1 kts 19°
2026-05-06 23:46 43.60291 -110.73830 6415 ft 1 kts 19°
2026-05-06 23:47 43.60312 -110.73820 6418 ft 5 kts 19°
2026-05-06 23:47 43.60348 -110.73802 6417 ft 6 kts 19°
2026-05-06 23:47 43.60392 -110.73781 6419 ft 7 kts 19°
2026-05-06 23:47 43.60447 -110.73755 6419 ft 9 kts 20°
2026-05-06 23:48 43.60512 -110.73722 6418 ft 11 kts 19°
2026-05-06 23:48 43.60580 -110.73689 6418 ft 10 kts 20°
2026-05-06 23:48 43.60646 -110.73656 6423 ft 10 kts 19°
2026-05-06 23:48 43.60711 -110.73625 6425 ft 10 kts 19°
2026-05-06 23:49 43.60774 -110.73595 6425 ft 9 kts 20°
2026-05-06 23:49 43.60836 -110.73564 6424 ft 10 kts 20°
2026-05-06 23:49 43.60903 -110.73531 6423 ft 10 kts 19°
2026-05-06 23:49 43.60972 -110.73497 6422 ft 11 kts 19°
2026-05-06 23:50 43.61051 -110.73458 6423 ft 13 kts 19°
2026-05-06 23:50 43.61213 -110.73379 6422 ft 12 kts 20°
2026-05-06 23:50 43.61291 -110.73341 6424 ft 12 kts 19°
2026-05-06 23:51 43.61367 -110.73304 6423 ft 11 kts 20°
2026-05-06 23:51 43.61441 -110.73268 6426 ft 11 kts 19°
2026-05-06 23:51 43.61491 -110.73252 6426 ft 5 kts 349°
2026-05-06 23:51 43.61501 -110.73259 6425 ft 2 kts 331°
2026-05-06 23:52 43.61517 -110.73290 6423 ft 7 kts 289°
2026-05-06 23:52 43.61532 -110.73357 6420 ft 8 kts 283°
2026-05-06 23:52 43.61505 -110.73398 6417 ft 0 kts 198°
2026-05-06 23:53 43.61480 -110.73410 6418 ft 25 kts 199°
2026-05-06 23:53 43.61066 -110.73611 6423 ft 99 kts 199°
2026-05-06 23:53 43.60205 -110.74035 6419 ft 161 kts 200°
2026-05-06 23:53 43.59042 -110.74600 6937 ft 185 kts 204°
2026-05-06 23:54 43.57918 -110.75463 7607 ft 186 kts 232°
2026-05-06 23:54 43.57228 -110.76972 8276 ft 189 kts 244°
2026-05-06 23:54 43.56437 -110.78531 8625 ft 213 kts 229°
2026-05-06 23:54 43.55116 -110.79730 8872 ft 243 kts 207°
2026-05-06 23:55 43.53494 -110.80633 9136 ft 266 kts 206°
2026-05-06 23:55 43.51700 -110.81640 9465 ft 287 kts 206°
2026-05-06 23:55 43.49833 -110.82683 10252 ft 291 kts 206°
2026-05-06 23:55 43.47911 -110.83768 10799 ft 305 kts 206°
2026-05-06 23:56 43.45916 -110.84907 11449 ft 314 kts 207°
2026-05-06 23:56 43.43885 -110.86074 12187 ft 320 kts 207°
2026-05-06 23:56 43.41808 -110.87273 12942 ft 325 kts 207°
2026-05-06 23:56 43.39702 -110.88494 13680 ft 332 kts 207°
2026-05-06 23:57 43.37549 -110.89741 14343 ft 338 kts 208°
2026-05-06 23:57 43.35361 -110.91009 15051 ft 343 kts 207°
2026-05-06 23:57 43.33178 -110.92273 15732 ft 347 kts 208°
2026-05-06 23:57 43.30922 -110.93580 16405 ft 354 kts 207°
2026-05-06 23:58 43.28630 -110.94903 17053 ft 359 kts 207°
2026-05-06 23:58 43.26357 -110.96343 17676 ft 360 kts 218°
2026-05-06 23:58 43.24602 -110.98696 18252 ft 349 kts 245°
2026-05-06 23:58 43.23769 -111.01717 18845 ft 335 kts 270°
2026-05-06 23:59 43.23869 -111.04860 19467 ft 328 kts 284°
2026-05-06 23:59 43.24380 -111.07879 20103 ft 324 kts 294°
2026-05-06 23:59 43.25158 -111.10792 20741 ft 326 kts 296°
2026-05-06 23:59 43.26000 -111.13693 21358 ft 328 kts 297°
2026-05-07 00:00 43.26858 -111.16606 21980 ft 331 kts 297°
2026-05-07 00:00 43.27708 -111.19508 22604 ft 333 kts 297°
2026-05-07 00:00 43.28570 -111.22481 23218 ft 337 kts 297°
2026-05-07 00:00 43.29432 -111.25483 23825 ft 338 kts 296°
2026-05-07 00:01 43.30292 -111.28507 24279 ft 342 kts 297°
2026-05-07 00:01 43.31159 -111.31566 24707 ft 346 kts 297°
2026-05-07 00:01 43.32029 -111.34651 25205 ft 347 kts 297°
2026-05-07 00:01 43.32900 -111.37748 25703 ft 348 kts 297°
2026-05-07 00:02 43.33774 -111.40863 26156 ft 351 kts 296°
2026-05-07 00:02 43.34654 -111.44002 26658 ft 352 kts 296°
2026-05-07 00:02 43.35537 -111.47161 27162 ft 354 kts 296°
2026-05-07 00:02 43.36426 -111.50343 27617 ft 357 kts 296°
2026-05-07 00:03 43.37305 -111.53493 28051 ft 359 kts 296°
2026-05-07 00:03 43.38202 -111.56709 28474 ft 362 kts 296°
2026-05-07 00:03 43.39105 -111.59954 28911 ft 364 kts 296°
2026-05-07 00:03 43.40011 -111.63212 29358 ft 366 kts 296°
2026-05-07 00:04 43.40922 -111.66495 29759 ft 368 kts 296°
2026-05-07 00:04 43.41837 -111.69795 30172 ft 370 kts 296°
2026-05-07 00:04 43.42753 -111.73103 30541 ft 371 kts 296°
2026-05-07 00:04 43.43674 -111.76436 30899 ft 373 kts 296°
2026-05-07 00:05 43.44596 -111.79776 31246 ft 374 kts 296°
2026-05-07 00:05 43.45521 -111.83132 31554 ft 376 kts 296°
2026-05-07 00:05 43.46451 -111.86509 31832 ft 379 kts 295°
2026-05-07 00:05 43.47374 -111.89865 32128 ft 381 kts 295°
2026-05-07 00:06 43.48314 -111.93289 32459 ft 382 kts 295°
2026-05-07 00:06 43.49255 -111.96724 32770 ft 383 kts 295°
2026-05-07 00:06 43.50200 -112.00171 33067 ft 385 kts 295°
2026-05-07 00:06 43.51146 -112.03629 33346 ft 387 kts 295°
2026-05-07 00:07 43.52101 -112.07094 33624 ft 388 kts 296°
2026-05-07 00:07 43.53151 -112.10525 33886 ft 388 kts 298°
2026-05-07 00:07 43.54258 -112.13928 34149 ft 389 kts 298°
2026-05-07 00:07 43.55387 -112.17330 34381 ft 390 kts 298°
2026-05-07 00:08 43.56519 -112.20742 34608 ft 392 kts 298°
2026-05-07 00:08 43.57649 -112.24167 34804 ft 394 kts 298°
2026-05-07 00:08 43.58767 -112.27578 34978 ft 396 kts 298°
2026-05-07 00:08 43.59899 -112.31054 35165 ft 397 kts 298°
2026-05-07 00:09 43.61027 -112.34536 35386 ft 398 kts 298°
2026-05-07 00:09 43.62155 -112.38029 35585 ft 399 kts 297°
2026-05-07 00:09 43.63285 -112.41538 35746 ft 401 kts 297°
2026-05-07 00:09 43.64419 -112.45061 35899 ft 402 kts 297°
2026-05-07 00:10 43.65553 -112.48595 36103 ft 403 kts 297°
2026-05-07 00:10 43.66685 -112.52127 36395 ft 401 kts 297°
2026-05-07 00:10 43.67813 -112.55653 36704 ft 399 kts 297°
2026-05-07 00:10 43.68934 -112.59160 36965 ft 399 kts 297°
2026-05-07 00:11 43.70041 -112.62625 37111 ft 400 kts 297°
2026-05-07 00:11 43.71165 -112.66148 37287 ft 401 kts 297°
2026-05-07 00:11 43.72288 -112.69672 37567 ft 399 kts 297°
2026-05-07 00:11 43.73405 -112.73186 37843 ft 398 kts 297°
2026-05-07 00:12 43.74518 -112.76689 38012 ft 398 kts 297°
2026-05-07 00:12 43.75639 -112.80219 38003 ft 402 kts 297°
2026-05-07 00:12 43.77902 -112.87361 38006 ft 408 kts 296°
2026-05-07 00:13 43.80176 -112.94561 38003 ft 412 kts 296°
2026-05-07 00:13 43.82463 -113.01830 37993 ft 409 kts 297°
2026-05-07 00:14 43.84711 -113.08997 37980 ft 401 kts 297°
2026-05-07 00:14 43.86929 -113.16082 37990 ft 400 kts 297°
2026-05-07 00:15 43.89143 -113.23165 38008 ft 400 kts 297°
2026-05-07 00:15 43.91357 -113.30271 37999 ft 401 kts 297°
2026-05-07 00:16 43.93578 -113.37418 37995 ft 405 kts 297°
2026-05-07 00:16 43.95795 -113.44574 37974 ft 409 kts 296°
2026-05-07 00:17 43.98031 -113.51813 37993 ft 407 kts 297°
2026-05-07 00:17 44.00262 -113.59081 38055 ft 410 kts 297°
2026-05-07 00:18 44.01011 -113.61510 37943 ft 412 kts 296°
2026-05-07 00:18 44.02126 -113.65142 38042 ft 406 kts 296°
2026-05-07 00:18 44.04682 -113.73485 37982 ft 402 kts 297°
2026-05-07 00:19 44.06864 -113.80621 37981 ft 398 kts 297°
2026-05-07 00:19 44.08654 -113.86493 37990 ft 397 kts 296°
2026-05-07 00:20 44.10826 -113.93630 38006 ft 403 kts 296°
2026-05-07 00:20 44.13022 -114.00869 38026 ft 408 kts 296°
2026-05-07 00:21 44.15238 -114.08202 37972 ft 411 kts 296°
2026-05-07 00:21 44.17439 -114.15510 37987 ft 412 kts 296°
2026-05-07 00:22 44.19651 -114.22876 38005 ft 411 kts 296°
2026-05-07 00:22 44.21845 -114.30200 37997 ft 410 kts 296°
2026-05-07 00:23 44.24032 -114.37521 38024 ft 408 kts 296°
2026-05-07 00:23 44.26213 -114.44845 38022 ft 408 kts 296°
2026-05-07 00:24 44.28385 -114.52154 37985 ft 409 kts 296°
2026-05-07 00:24 44.30552 -114.59471 37987 ft 407 kts 296°
2026-05-07 00:25 44.32708 -114.66772 38002 ft 406 kts 296°
2026-05-07 00:25 44.34856 -114.74063 37972 ft 406 kts 296°
2026-05-07 00:26 44.36993 -114.81343 38001 ft 404 kts 296°
2026-05-07 00:26 44.39107 -114.88569 38032 ft 403 kts 296°
2026-05-07 00:27 44.41234 -114.95850 38020 ft 404 kts 296°
2026-05-07 00:27 44.43352 -115.03127 37977 ft 404 kts 296°
2026-05-07 00:28 44.45461 -115.10389 38010 ft 402 kts 296°
2026-05-07 00:28 44.47558 -115.17639 38026 ft 401 kts 296°
2026-05-07 00:29 44.49651 -115.24892 38011 ft 401 kts 296°
2026-05-07 00:30 44.53808 -115.39355 38039 ft 402 kts 296°
2026-05-07 00:30 44.55888 -115.46628 38053 ft 402 kts 296°
2026-05-07 00:31 44.57972 -115.53935 38060 ft 403 kts 296°
2026-05-07 00:31 44.60055 -115.61260 38043 ft 406 kts 296°
2026-05-07 00:32 44.62141 -115.68619 38047 ft 406 kts 296°
2026-05-07 00:32 44.64225 -115.75993 38037 ft 405 kts 296°
2026-05-07 00:33 44.66284 -115.83309 38060 ft 407 kts 296°
2026-05-07 00:33 44.68365 -115.90710 38086 ft 406 kts 296°
2026-05-07 00:34 44.70435 -115.98095 38092 ft 405 kts 296°
2026-05-07 00:34 44.72496 -116.05475 38096 ft 405 kts 295°
2026-05-07 00:35 44.74546 -116.12837 38109 ft 403 kts 295°
2026-05-07 00:35 44.76590 -116.20188 38114 ft 403 kts 296°
2026-05-07 00:36 44.78974 -116.27277 38054 ft 400 kts 301°
2026-05-07 00:36 44.81503 -116.34203 38060 ft 401 kts 301°
2026-05-07 00:37 44.84040 -116.41210 38047 ft 401 kts 300°
2026-05-07 00:37 44.86550 -116.48235 38041 ft 401 kts 300°
2026-05-07 00:38 44.89049 -116.55284 38029 ft 402 kts 300°
2026-05-07 00:38 44.91547 -116.62358 38033 ft 403 kts 300°
2026-05-07 00:39 44.94027 -116.69400 38030 ft 403 kts 300°
2026-05-07 00:39 44.96529 -116.76520 38033 ft 404 kts 300°
2026-05-07 00:40 44.99026 -116.83645 38034 ft 405 kts 300°
2026-05-07 00:40 45.01521 -116.90786 38027 ft 404 kts 300°
2026-05-07 00:41 45.04007 -116.97919 38031 ft 404 kts 300°
2026-05-07 00:41 45.06476 -117.05022 38035 ft 404 kts 300°
2026-05-07 00:42 45.08954 -117.12168 38042 ft 404 kts 300°
2026-05-07 00:42 45.11427 -117.19319 38037 ft 404 kts 300°
2026-05-07 00:43 45.13896 -117.26482 38056 ft 403 kts 300°
2026-05-07 00:43 45.16338 -117.33581 38056 ft 402 kts 300°
2026-05-07 00:44 45.18784 -117.40712 38052 ft 402 kts 300°
2026-05-07 00:44 45.21222 -117.47836 38080 ft 402 kts 300°
2026-05-07 00:45 45.23660 -117.54981 38058 ft 402 kts 300°
2026-05-07 00:45 45.26093 -117.62133 38021 ft 402 kts 300°
2026-05-07 00:46 45.28508 -117.69250 38010 ft 402 kts 300°
2026-05-07 00:46 45.30927 -117.76394 38030 ft 401 kts 300°
2026-05-07 00:47 45.33344 -117.83549 38024 ft 401 kts 300°
2026-05-07 00:47 45.35754 -117.90701 38024 ft 401 kts 300°
2026-05-07 00:48 45.38156 -117.97851 38029 ft 400 kts 300°
2026-05-07 00:48 45.40554 -118.05009 38026 ft 400 kts 300°
2026-05-07 00:49 45.42941 -118.12150 38028 ft 397 kts 300°
2026-05-07 00:49 45.45312 -118.19266 38013 ft 397 kts 300°
2026-05-07 00:50 45.47668 -118.26352 38028 ft 398 kts 300°
2026-05-07 00:50 45.50036 -118.33496 38019 ft 398 kts 300°
2026-05-07 00:51 45.52397 -118.40638 38050 ft 398 kts 299°
2026-05-07 00:51 45.54763 -118.47813 38044 ft 400 kts 299°
2026-05-07 00:52 45.57132 -118.55017 38020 ft 402 kts 299°
2026-05-07 00:52 45.59501 -118.62247 38017 ft 402 kts 299°
2026-05-07 00:53 45.61856 -118.69449 37997 ft 403 kts 299°
2026-05-07 00:53 45.64226 -118.76718 37990 ft 403 kts 298°
2026-05-07 00:54 45.66591 -118.83991 37991 ft 403 kts 298°
2026-05-07 00:54 45.68938 -118.91207 37989 ft 402 kts 300°
2026-05-07 00:55 45.72026 -118.97778 37965 ft 396 kts 312°
2026-05-07 00:55 45.75624 -119.03752 37956 ft 396 kts 312°
2026-05-07 00:56 45.79202 -119.09743 37943 ft 396 kts 312°
2026-05-07 00:56 45.82764 -119.15752 37921 ft 395 kts 311°
2026-05-07 00:57 45.86313 -119.21762 37939 ft 395 kts 311°
2026-05-07 00:57 45.89866 -119.27795 37945 ft 395 kts 311°
2026-05-07 00:58 45.93389 -119.33790 37946 ft 395 kts 311°
2026-05-07 00:58 45.96957 -119.39875 37936 ft 396 kts 311°
2026-05-07 00:59 46.02254 -119.48933 37919 ft 396 kts 311°
2026-05-07 01:00 46.05798 -119.55010 37911 ft 396 kts 311°
2026-05-07 01:00 46.09347 -119.61110 37909 ft 397 kts 311°
2026-05-07 01:01 46.12891 -119.67213 37915 ft 397 kts 311°
2026-05-07 01:01 46.16434 -119.73328 37906 ft 397 kts 311°
2026-05-07 01:02 46.19958 -119.79424 37915 ft 397 kts 310°
2026-05-07 01:02 46.23491 -119.85558 37904 ft 397 kts 310°
2026-05-07 01:03 46.27017 -119.91693 37909 ft 396 kts 310°
2026-05-07 01:03 46.30538 -119.97832 37919 ft 396 kts 310°
2026-05-07 01:04 46.34030 -120.03933 37928 ft 396 kts 310°
2026-05-07 01:04 46.37539 -120.10078 37913 ft 395 kts 310°
2026-05-07 01:05 46.41032 -120.16210 37935 ft 394 kts 310°
2026-05-07 01:05 46.44407 -120.22147 37944 ft 394 kts 310°
2026-05-07 01:06 46.47885 -120.28280 37958 ft 393 kts 310°
2026-05-07 01:06 46.51332 -120.34372 37976 ft 392 kts 309°
2026-05-07 01:07 46.54211 -120.39469 37979 ft 391 kts 309°
2026-05-07 01:07 46.57614 -120.45615 37973 ft 390 kts 307°
2026-05-07 01:08 46.60733 -120.52085 37967 ft 389 kts 306°
2026-05-07 01:08 46.62283 -120.55365 37495 ft 395 kts 306°
2026-05-07 01:08 46.63835 -120.58651 36916 ft 392 kts 305°
2026-05-07 01:08 46.65355 -120.61860 36355 ft 390 kts 305°
2026-05-07 01:09 46.66896 -120.65108 35716 ft 390 kts 305°
2026-05-07 01:09 46.68444 -120.68365 35027 ft 391 kts 305°
2026-05-07 01:09 46.69994 -120.71626 34355 ft 392 kts 305°
2026-05-07 01:09 46.71560 -120.74897 33584 ft 395 kts 307°
2026-05-07 01:10 46.73382 -120.77853 33231 ft 386 kts 315°
2026-05-07 01:10 46.75413 -120.80455 32959 ft 393 kts 318°
2026-05-07 01:10 46.77546 -120.83063 32720 ft 405 kts 318°
2026-05-07 01:10 46.79736 -120.85727 32471 ft 414 kts 318°
2026-05-07 01:11 46.81962 -120.88438 32209 ft 417 kts 318°
2026-05-07 01:11 46.84186 -120.91157 31975 ft 417 kts 318°
2026-05-07 01:11 46.86387 -120.93857 31729 ft 417 kts 318°
2026-05-07 01:11 46.88605 -120.96588 31481 ft 418 kts 318°
2026-05-07 01:12 46.90831 -120.99336 31235 ft 418 kts 318°
2026-05-07 01:12 46.93052 -121.02083 30991 ft 418 kts 318°
2026-05-07 01:12 46.95272 -121.04834 30749 ft 418 kts 318°
2026-05-07 01:12 46.97498 -121.07595 30501 ft 419 kts 318°
2026-05-07 01:13 46.99727 -121.10363 30269 ft 421 kts 318°
2026-05-07 01:13 47.01961 -121.13141 30018 ft 422 kts 318°
2026-05-07 01:13 47.04204 -121.15933 29765 ft 423 kts 318°
2026-05-07 01:13 47.06423 -121.18699 29497 ft 424 kts 318°
2026-05-07 01:14 47.08679 -121.21514 29222 ft 426 kts 318°
2026-05-07 01:14 47.10937 -121.24333 28981 ft 427 kts 317°
2026-05-07 01:14 47.13210 -121.27175 28720 ft 428 kts 317°
2026-05-07 01:14 47.15483 -121.30022 28457 ft 429 kts 318°
2026-05-07 01:15 47.17756 -121.32869 27537 ft 431 kts 317°
2026-05-07 01:15 47.20032 -121.35725 26752 ft 428 kts 317°
2026-05-07 01:15 47.22254 -121.38515 26058 ft 423 kts 317°
2026-05-07 01:15 47.24477 -121.41310 25395 ft 418 kts 317°
2026-05-07 01:16 47.26676 -121.44077 24682 ft 414 kts 317°
2026-05-07 01:16 47.28854 -121.46822 24000 ft 410 kts 317°
2026-05-07 01:16 47.31016 -121.49551 23258 ft 407 kts 317°
2026-05-07 01:16 47.33157 -121.52254 22543 ft 402 kts 317°
2026-05-07 01:17 47.35274 -121.54931 21842 ft 398 kts 317°
2026-05-07 01:17 47.37365 -121.57578 21163 ft 393 kts 316°
2026-05-07 01:17 47.39426 -121.60190 20526 ft 388 kts 316°
2026-05-07 01:17 47.41466 -121.62778 19870 ft 384 kts 316°
2026-05-07 01:18 47.43481 -121.65337 19263 ft 380 kts 316°
2026-05-07 01:18 47.45476 -121.67873 18634 ft 377 kts 316°
2026-05-07 01:18 47.47428 -121.70359 17923 ft 374 kts 316°
2026-05-07 01:18 47.49390 -121.72859 17189 ft 371 kts 316°
2026-05-07 01:19 47.51347 -121.75356 16452 ft 370 kts 316°
2026-05-07 01:19 47.53288 -121.77836 15769 ft 368 kts 316°
2026-05-07 01:19 47.55219 -121.80304 15138 ft 364 kts 316°
2026-05-07 01:19 47.57131 -121.82750 14508 ft 361 kts 315°
2026-05-07 01:20 47.59025 -121.85175 13851 ft 359 kts 316°
2026-05-07 01:20 47.60906 -121.87586 13177 ft 356 kts 316°
2026-05-07 01:20 47.62775 -121.89985 12529 ft 353 kts 316°
2026-05-07 01:20 47.64627 -121.92364 11900 ft 350 kts 316°
2026-05-07 01:21 47.66459 -121.94721 11284 ft 348 kts 316°
2026-05-07 01:21 47.68241 -121.97011 11074 ft 335 kts 316°
2026-05-07 01:21 47.69968 -121.99233 10903 ft 322 kts 316°
2026-05-07 01:21 47.71634 -122.01380 10646 ft 314 kts 316°
2026-05-07 01:22 47.73262 -122.03480 10476 ft 304 kts 316°
2026-05-07 01:22 47.74829 -122.05505 10337 ft 293 kts 316°
2026-05-07 01:22 47.76345 -122.07465 10233 ft 283 kts 316°
2026-05-07 01:22 47.77801 -122.09349 10151 ft 272 kts 316°
2026-05-07 01:23 47.79197 -122.11157 10057 ft 262 kts 316°
2026-05-07 01:23 47.80548 -122.12907 9981 ft 252 kts 316°
2026-05-07 01:23 47.81861 -122.14609 9762 ft 249 kts 316°
2026-05-07 01:23 47.83152 -122.16285 9554 ft 245 kts 316°
2026-05-07 01:24 47.84413 -122.17923 9307 ft 243 kts 316°
2026-05-07 01:24 47.85683 -122.19573 9065 ft 241 kts 316°
2026-05-07 01:24 47.86929 -122.21219 8828 ft 237 kts 311°
2026-05-07 01:24 47.87728 -122.23297 8574 ft 232 kts 283°
2026-05-07 01:25 47.87780 -122.25689 8328 ft 235 kts 261°
2026-05-07 01:25 47.87113 -122.27960 8093 ft 247 kts 236°
2026-05-07 01:25 47.85770 -122.29649 7831 ft 263 kts 210°
2026-05-07 01:25 47.84021 -122.30452 7565 ft 270 kts 197°
2026-05-07 01:26 47.82180 -122.31032 7272 ft 270 kts 197°
2026-05-07 01:26 47.80340 -122.31552 6977 ft 269 kts 191°
2026-05-07 01:26 47.78463 -122.31607 6631 ft 268 kts 182°
2026-05-07 01:26 47.76626 -122.31537 6265 ft 260 kts 182°
2026-05-07 01:27 47.75031 -122.31543 5953 ft 253 kts 182°
2026-05-07 01:27 47.73290 -122.31566 5617 ft 246 kts 182°
2026-05-07 01:27 47.71605 -122.31581 5293 ft 239 kts 182°
2026-05-07 01:27 47.69967 -122.31594 4998 ft 231 kts 181°
2026-05-07 01:28 47.68385 -122.31606 4685 ft 224 kts 181°
2026-05-07 01:28 47.66874 -122.31617 4378 ft 217 kts 181°
2026-05-07 01:28 47.65390 -122.31629 4103 ft 210 kts 181°
2026-05-07 01:28 47.63947 -122.31641 3829 ft 203 kts 181°
2026-05-07 01:29 47.62558 -122.31651 3575 ft 197 kts 181°
2026-05-07 01:29 47.61222 -122.31662 3307 ft 193 kts 182°
2026-05-07 01:29 47.59892 -122.31673 3059 ft 189 kts 181°
2026-05-07 01:29 47.58593 -122.31683 2827 ft 185 kts 182°
2026-05-07 01:30 47.57320 -122.31693 2567 ft 179 kts 182°
2026-05-07 01:30 47.56152 -122.31701 2387 ft 163 kts 182°
2026-05-07 01:30 47.55070 -122.31710 2173 ft 145 kts 182°
2026-05-07 01:30 47.54094 -122.31718 1953 ft 138 kts 182°
2026-05-07 01:31 47.53132 -122.31726 1775 ft 139 kts 183°
2026-05-07 01:31 47.52167 -122.31734 1585 ft 139 kts 182°
2026-05-07 01:31 47.51197 -122.31742 1398 ft 139 kts 183°
2026-05-07 01:31 47.50247 -122.31749 1236 ft 139 kts 183°
2026-05-07 01:32 47.49287 -122.31766 1067 ft 136 kts 182°
2026-05-07 01:32 47.48338 -122.31765 849 ft 136 kts 182°
2026-05-07 01:32 47.47403 -122.31781 684 ft 134 kts 182°
2026-05-07 01:32 47.46492 -122.31789 482 ft 126 kts 183°
2026-05-07 01:33 47.45678 -122.31794 410 ft 102 kts 180°
2026-05-07 01:33 47.45124 -122.31799 393 ft 60 kts 180°
2026-05-07 01:33 47.44895 -122.31748 389 ft 15 kts 161°
2026-05-07 01:33 47.44796 -122.31675 384 ft 16 kts 150°
2026-05-07 01:34 47.44709 -122.31588 383 ft 13 kts 135°
2026-05-07 01:34 47.44660 -122.31476 386 ft 13 kts 112°
2026-05-07 01:34 47.44646 -122.31345 389 ft 13 kts 91°
2026-05-07 01:34 47.44645 -122.31217 393 ft 12 kts 90°
2026-05-07 01:35 47.44621 -122.31099 391 ft 12 kts 126°
2026-05-07 01:35 47.44546 -122.31017 391 ft 14 kts 150°
2026-05-07 01:35 47.44468 -122.30952 390 ft 12 kts 150°
2026-05-07 01:35 47.44394 -122.30888 391 ft 12 kts 145°
2026-05-07 01:36 47.44351 -122.30787 392 ft 12 kts 100°
2026-05-07 01:36 47.44348 -122.30673 392 ft 11 kts 90°
2026-05-07 01:36 47.44348 -122.30578 393 ft 9 kts 90°
2026-05-07 01:36 47.44334 -122.30491 393 ft 9 kts 123°
2026-05-07 01:37 47.44299 -122.30441 392 ft 5 kts 145°
2026-05-07 01:37 47.44277 -122.30418 392 ft 2 kts 144°
2026-05-07 01:37 47.44268 -122.30408 392 ft 0 kts 144°